Regional Weather Roundup
Issued by NWS

Home | Current Version | Previous Version | Graphics & Text | Print | Product List | Glossary On
Versions: 1 2 3 4 5 6 7 8 9 10 11 12 13 14 15 16 17 18 19 20 21 22 23 24 25 26 27 28 29 30 31 32 33 34 35 36 37 38 39 40 41 42 43 44 45 46 47 48 49 50
000
ASUS43 KOAX 281602
RWRNE

WEATHER ROUNDUP FOR NEBRASKA
NATIONAL WEATHER SERVICE OMAHA NE
1100 AM CDT FRI APR 28 2017

NOTES: SATELLITE DATA IS BEING USED TO AUGMENT CLOUD COVER ABOVE
       12000 FEET.
       "FAIR" INDICATES FEW OR NO CLOUDS BELOW 12,000 FEET WITH NO
       SIGNIFICANT WEATHER AND/OR OBSTRUCTIONS TO VISIBILITY.

  * THESE STATIONS DO NOT REPORT WEATHER SUCH AS RAIN...SNOW OR FOG.

NEZ001>004-019>022-054>056-281700-
NEBRASKA PANHANDLE

CITY           SKY/WX    TMP DP  RH WIND       PRES   REMARKS
SCOTTSBLUFF    SNOW      34  31  88 E16       29.76R VSB 1/2 WCI  24
ALLIANCE       SNOW      33  31  92 E23       29.78R VSB 1/2 WCI  21
CHADRON        LGT SNOW  33  31  92 E15       29.85R VSB 3/4 WCI  23
KIMBALL        LGT SNOW  34  33  96 E9        29.71R VSB 3/4 WCI  27
SIDNEY         SNOW      33  32  96 E12       29.73R VSB 1/2 WCI  24
$$

NEZ057>060-069>072-079>082-281700-
SOUTHWEST NEBRASKA

CITY           SKY/WX    TMP DP  RH WIND       PRES   REMARKS
NORTH PLATTE   LGT SNOW  35  33  92 NE18G29   29.76R FOG     WCI  24
IMPERIAL       LGT RAIN  38  36  92 NE14      29.74R WCI  30
LEXINGTON      LGT RAIN  36  34  92 NE18      29.75R WCI  26
MCCOOK         LGT RAIN  42  41  96 NE20G25   29.71R FOG
OGALLALA       LGT SNOW  35  34  96 NE9       29.77R WCI  28
$$

NEZ005>010-023>029-035>040-094-281700-
NORTH CENTRAL NEBRASKA

CITY           SKY/WX    TMP DP  RH WIND       PRES   REMARKS
VALENTINE      CLOUDY    41  27  57 E22G28    29.88R
AINSWORTH      CLOUDY    38  31  77 E18G25    29.87R WCI  28
BROKEN BOW     LGT SNOW  34  33  96 NE18      29.79R FOG     WCI  23
O`NEILL        CLOUDY    40  29  64 NE17      29.88R WCI  32
ORD            LGT SNOW  34  31  88 NE14      29.81R FOG     WCI  25
THEDFORD       LGT SNOW  34  33  96 E18G24    29.84R VSB 3/4 WCI  23
$$

NEZ041-046>049-061>064-073>077-083>087-281700-
SOUTH CENTRAL NEBRASKA

CITY           SKY/WX    TMP DP  RH WIND       PRES   REMARKS
GRAND ISLAND   LGT RAIN  36  36 100 NE24G32   29.76R FOG     WCI  24
AURORA         DRIZZLE   37  36  97 NE26      29.74R WCI  24
HASTINGS       LGT RAIN  39  37  92 NE22G31   29.72R FOG     WCI  29
HEBRON         LGT RAIN  43  42  97 E18       29.69R
HOLDREGE       LGT RAIN  39  37  93 NE23      29.72R WCI  28
KEARNEY *      CLOUDY    37  34  87 NE23      29.74R WCI  26
YORK           LGT SNOW  37  37 100 NE23G31   29.75S WCI  26
$$

NEZ011>018-030>034-042>045-281700-
NORTHEAST NEBRASKA

CITY           SKY/WX    TMP DP  RH WIND       PRES   REMARKS
NORFOLK        LGT SNOW  33  31  92 NE15G22   29.83S FOG     WCI  23
ALBION         LGT SNOW  35  32  90 NE15G21   29.83R WCI  25
BLAIR          RAIN      37  35  92 NE20      29.80R WCI  26
FREMONT        DRIZZLE   38  37  96 NE14      29.81F WCI  29
TEKAMAH        LGT RAIN  38  34  85 NE20      29.85S WCI  28
WAYNE          LGT RAIN  36  35  99 E16G22    29.87S WCI  26
$$

NEZ050>053-065>068-078-088>093-281700-
SOUTHEAST NEBRASKA

CITY           SKY/WX    TMP DP  RH WIND       PRES   REMARKS
LINCOLN        LGT RAIN  40  38  93 NE20G25   29.77S FOG     WCI  30
OMAHA EPPLEY   LGT RAIN  39  33  79 NE12G23   29.84R WCI  32
BEATRICE       CLOUDY    42  40  93 NE21G29   29.72R
FALLS CITY     LGT RAIN  44  43  96 NE10      29.71R FOG
NEBRASKA CITY  RAIN      39  39  99 NE18      29.76R WCI  29
$$

NEZ044-045-051>053-067-281700-
OMAHA AREA

CITY           SKY/WX    TMP DP  RH WIND       PRES   REMARKS
OMAHA EPPLEY   LGT RAIN  39  33  79 NE12G23   29.84R WCI  32
BLAIR          RAIN      37  35  92 NE20      29.80R WCI  26
FREMONT        DRIZZLE   38  37  96 NE14      29.81F WCI  29
MILLARD        RAIN      40  38  91 NE9       29.80S WCI  34
OFFUTT AFB     RAIN      38  35  89 NE14      29.81R FOG     WCI  30
WAHOO          CLOUDY    38  36  90 NE17      29.80R WCI  29
$$




USA.gov is the U.S. government's official web portal to all federal, state and local government web resources and services.